DW2380 Paimio FI current weather conditions

sailwx.info

Wind from 360 at 4 knots gusting 9

Air temperature 12.8° C
Dewpoint 7.2° C

Last reported at 2015-May-25 16:43 UTC.
Time now 2015-May-25 17:34 UTC

Location: N 60°28' E 022°40'.
View on Google Maps.

See reports from other nearby stations

  
Tides and Currents Weather Stations Pressure Air Temp Water Temp Dewpoint Dewpoint Depression Visibility Wind Speed Wind Dir Waves Ship Positions
date/time (UTC)wind fromknots sea level pressurealtimeterstation pressurevisibilityair tempwater tempwave heightnotes
2015-May-25 16:43 360 4 gusting 9 12.8
2015-May-25 16:27 360 4 gusting 9 12.8
2015-May-25 16:12 360 6 gusting 10 12.2
2015-May-25 15:57 360 7 gusting 11 12.2
2015-May-25 15:42 360 6 gusting 13 12.8
2015-May-25 15:27 360 8 gusting 15 12.8
2015-May-25 15:12 360 9 gusting 18 12.8
2015-May-25 14:57 360 7 gusting 14 12.8
2015-May-25 14:42 360 10 gusting 17 13.3
2015-May-25 14:26 360 7 gusting 19 12.8
2015-May-25 14:11 360 8 gusting 17 13.3
2015-May-25 13:56 360 8 gusting 13 13.9
2015-May-25 13:41 360 7 gusting 13 14.4
2015-May-25 13:26 360 10 gusting 16 14.4
2015-May-25 13:11 360 9 gusting 15 14.4
2015-May-25 12:56 360 7 gusting 13 15.0
2015-May-25 12:41 360 10 gusting 15 14.4
2015-May-25 12:26 360 7 gusting 13 14.4
2015-May-25 12:11 360 7 gusting 12 15.0
2015-May-25 11:56 360 8 gusting 14 15.0
2015-May-25 11:41 360 6 gusting 15 14.4
2015-May-25 11:26 360 8 gusting 13 14.4
2015-May-25 11:09 360 6 gusting 15 13.9
2015-May-25 10:54 360 7 gusting 16 13.3
2015-May-25 10:39 360 8 gusting 15 12.8
2015-May-25 10:24 360 6 gusting 16 11.7
2015-May-25 10:09 360 6 gusting 15 11.7
2015-May-25 09:54 360 9 gusting 15 11.1
2015-May-25 09:38 360 7 gusting 16 10.6
2015-May-25 09:23 360 9 gusting 17 10.0
2015-May-25 09:08 360 8 gusting 18 9.4
2015-May-25 08:53 360 7 gusting 14 9.4
2015-May-25 08:38 360 7 gusting 19 9.4
2015-May-25 08:23 360 8 gusting 15 9.4
2015-May-25 08:07 360 8 gusting 15 8.9
2015-May-25 07:52 360 6 gusting 16 9.4
2015-May-25 07:37 360 6 gusting 14 9.4
2015-May-25 07:22 360 7 gusting 16 8.9
2015-May-25 07:07 360 6 gusting 13 9.4
2015-May-25 06:52 360 7 gusting 14 8.9
2015-May-25 06:37 360 6 gusting 12 9.4
2015-May-25 06:22 360 7 gusting 14 8.9
2015-May-25 06:06 360 7 gusting 14 9.4
2015-May-25 05:51 360 7 gusting 13 9.4
2015-May-25 05:36 360 6 gusting 10 9.4
2015-May-25 05:21 360 7 gusting 11 9.4
2015-May-25 05:06 360 6 gusting 10 9.4
2015-May-25 04:51 360 6 gusting 11 8.9
2015-May-25 04:36 360 6 gusting 11 8.3
2015-May-25 04:21 360 5 gusting 10 7.8
2015-May-25 04:06 360 6 gusting 11 7.8
2015-May-25 03:51 360 6 gusting 11 7.2
2015-May-25 03:34 360 4 gusting 7 6.7
2015-May-25 03:21 360 6 gusting 11 6.7
2015-May-25 03:06 360 4 gusting 7 6.7
2015-May-25 02:50 360 5 gusting 9 6.7
2015-May-25 02:35 360 3 gusting 5 6.7
2015-May-25 02:20 360 2 gusting 5 6.7
2015-May-25 02:05 360 2 gusting 5 6.7
2015-May-25 01:50 360 2 gusting 6 6.7
2015-May-25 01:35 360 4 gusting 7 6.7
2015-May-25 01:20 360 3 gusting 7 6.7
2015-May-25 01:05 360 3 gusting 6 7.2
2015-May-25 00:50 360 2 gusting 6 7.2
2015-May-25 00:35 360 2 gusting 6 7.2
2015-May-25 00:20 360 3 gusting 8 7.2
2015-May-25 00:05 360 2 gusting 6 7.2
2015-May-24 23:50 360 2 gusting 5 7.2
2015-May-24 23:35 360 2 gusting 6 7.2
2015-May-24 23:20 360 7.2
2015-May-24 23:05 360 0 gusting 3 7.2
2015-May-24 22:50 360 1 gusting 4 7.2
2015-May-24 22:34 360 2 gusting 4 7.2
2015-May-24 22:19 360 2 gusting 4 7.2
2015-May-24 22:04 360 3 gusting 4 7.2
2015-May-24 21:49 360 7.2
2015-May-24 21:34 360 0 gusting 3 7.2
2015-May-24 21:19 360 7.2
2015-May-24 21:04 360 7.8
2015-May-24 20:49 360 1 gusting 3 7.2
2015-May-24 20:34 360 7.8
2015-May-24 20:18 360 7.8
2015-May-24 20:03 360 7.8
2015-May-24 19:48 360 7.8
2015-May-24 19:33 360 7.8
2015-May-24 19:18 360 1 gusting 3 7.8
2015-May-24 19:03 360 8.9
2015-May-24 18:48 360 9.4
2015-May-24 18:32 360 10.0
2015-May-24 18:17 360 1 gusting 5 10.6
2015-May-24 18:02 360 1 gusting 4 10.6
2015-May-24 17:47 360 0 gusting 3 11.7
2015-May-24 17:32 360 1 gusting 6 11.7
2015-May-24 17:17 360 3 gusting 6 12.2
2015-May-24 17:02 360 3 gusting 6 12.2
2015-May-24 16:47 360 4 gusting 8 12.8
2015-May-24 16:31 360 6 gusting 8 12.8
2015-May-24 16:16 360 6 gusting 11 12.8
2015-May-24 16:01 360 6 gusting 9 13.3
2015-May-24 15:46 360 7 gusting 12 13.3
2015-May-24 15:31 360 6 gusting 10 13.3
2015-May-24 15:16 360 4 gusting 8 13.9
2015-May-24 15:01 360 6 gusting 11 13.9
2015-May-24 14:47 360 4 gusting 11 13.3
2015-May-24 14:31 360 7 gusting 13 14.4
2015-May-24 14:16 360 6 gusting 13 13.3
2015-May-24 14:01 360 6 gusting 13 15.0
2015-May-24 13:46 360 7 gusting 15 13.9
2015-May-24 13:32 360 6 gusting 12 14.4
2015-May-24 13:14 360 6 gusting 15 14.4
2015-May-24 12:59 360 6 gusting 15 15.0
2015-May-24 12:44 360 9 gusting 17 15.0
2015-May-24 12:29 360 6 gusting 18 14.4
2015-May-24 12:14 360 6 gusting 18 15.0
2015-May-24 11:59 360 8 gusting 15 15.0
2015-May-24 11:44 360 6 gusting 14 15.0
2015-May-24 11:28 360 11 gusting 17 13.9
2015-May-24 11:13 360 9 gusting 15 13.9
2015-May-24 10:58 360 6 gusting 13 13.9
2015-May-24 10:43 360 6 gusting 10 13.3
2015-May-24 10:28 360 3 gusting 10 12.8
2015-May-24 10:13 360 6 gusting 9 12.8
2015-May-24 09:57 360 8 gusting 12 13.3
2015-May-24 09:42 360 6 gusting 11 12.8
2015-May-24 09:27 360 5 gusting 10 11.7
2015-May-24 09:12 360 5 gusting 8 12.2
2015-May-24 08:57 360 4 gusting 12 12.2
2015-May-24 08:42 360 5 gusting 8 11.7
2015-May-24 08:26 360 4 gusting 8 11.7
2015-May-24 08:11 360 5 gusting 10 11.7
2015-May-24 07:56 360 3 gusting 11 11.1
2015-May-24 07:41 360 2 gusting 7 10.6
2015-May-24 07:26 360 5 gusting 11 11.1
2015-May-24 07:11 360 4 gusting 8 10.6
2015-May-24 06:56 360 1 gusting 6 9.4
2015-May-24 06:41 360 4 gusting 7 10.0
2015-May-24 06:26 360 0 gusting 6 8.9
2015-May-24 06:11 360 3 gusting 6 8.9
2015-May-24 05:56 360 1 gusting 6 7.8
2015-May-24 05:39 360 7.2
2015-May-24 05:26 360 6.7
2015-May-24 05:09 360 6.1
2015-May-24 04:54 360 5.6
2015-May-24 04:39 360 1 gusting 2 5.0
2015-May-24 04:24 360 5.0
2015-May-24 04:09 360 4.4
2015-May-24 03:54 360 4.4
2015-May-24 03:39 360 3.9
2015-May-24 03:24 360 2.8
2015-May-24 03:09 360 2.2
2015-May-24 02:54 360 1.7
2015-May-24 02:39 360 1.1
2015-May-24 02:24 360 1.1
2015-May-24 02:09 360 1.1
2015-May-24 01:54 360 1.1
2015-May-24 01:39 360 1.1
2015-May-24 01:24 360 1.1
2015-May-24 01:09 360 1.7
2015-May-24 00:54 360 1.1
2015-May-24 00:39 360 1.7
2015-May-24 00:24 360 1.7
2015-May-24 00:09 360 2.2
2015-May-23 23:54 360 1.7
2015-May-23 23:39 360 2.2
2015-May-23 23:23 360 2.2
2015-May-23 23:08 360 2.8
2015-May-23 22:53 360 2.8
2015-May-23 22:38 360 3.3
2015-May-23 22:23 360 3.3
2015-May-23 22:08 360 3.9
2015-May-23 21:53 360 4.4
2015-May-23 21:38 360 0 gusting 3 5.0
2015-May-23 21:23 360 2 gusting 6 5.6
2015-May-23 21:08 360 1 gusting 5 5.0
2015-May-23 20:53 360 0 gusting 3 5.6
2015-May-23 20:38 360 1 gusting 4 5.6
2015-May-23 20:23 360 2 gusting 6 6.1
2015-May-23 20:08 360 3 gusting 6 6.7
2015-May-23 19:52 360 3 gusting 6 6.7
2015-May-23 19:37 360 4 gusting 6 6.7
2015-May-23 19:22 360 2 gusting 4 6.7
2015-May-23 19:07 360 1 gusting 3 7.2
2015-May-23 18:51 360 0 gusting 3 7.8
2015-May-23 18:36 360 2 gusting 5 8.3
2015-May-23 18:22 360 0 gusting 4 8.9
2015-May-23 18:06 360 4 gusting 6 9.4
2015-May-23 17:51 360 6 gusting 10 9.4
2015-May-23 17:36 360 6 gusting 13 10.0
2015-May-23 17:21 360 10 gusting 14 10.0
2015-May-23 17:06 360 11 gusting 15 10.6